When you browse on this site, cookies collect data to enhance your experience and personalize the content and advertising you see.
Visit our Privacy Policy to learn more. By continuing to use the site, you agree to this use of cookies and data.
  • In Czech Republic
  • List of Countries
  • For 7 days
  • Water Temperature
  • Satellite Maps
  • Weather Map
  • Weather Widgets
  • user-avatar
    Login

    Hourly Weather Liverpool

    Today, 18 April, Thursday

    Time Temperature Precipitation Wind Pressure Humidity
    00:00 +1°C° 0 mm 0 mps 765 mmHg 80%
    01:00 +1°C° 0 mm 0 mps 766 mmHg 79%
    02:00 +1°C° 0 mm 1 mps 766 mmHg 80%
    03:00 +1°C° 0 mm 1 mps 766 mmHg 80%
    04:00 0°C° 0 mm 0 mps 766 mmHg 81%
    05:00 0°C° 0 mm 0 mps 767 mmHg 82%
    06:00 +3°C° 0 mm 1 mps 767 mmHg 75%
    07:00 +5°C° 0 mm 1 mps 767 mmHg 69%
    08:00 +7°C° 0 mm 1 mps 768 mmHg 61%
    09:00 +8°C° 0 mm 2 mps 768 mmHg 57%
    10:00 +9°C° 0 mm 2 mps 768 mmHg 53%
    11:00 +10°C° 0 mm 3 mps 768 mmHg 50%
    12:00 +10°C° 0 mm 4 mps 768 mmHg 50%
    13:00 +10°C° 0 mm 4 mps 768 mmHg 51%
    14:00 +9°C° 0 mm 5 mps 768 mmHg 52%
    15:00 +8°C° 0 mm 5 mps 768 mmHg 54%
    16:00 +7°C° 0 mm 5 mps 768 mmHg 57%
    17:00 +6°C° 0 mm 5 mps 767 mmHg 60%
    18:00 +6°C° 0 mm 5 mps 767 mmHg 61%
    19:00 +5°C° 0 mm 5 mps 767 mmHg 62%
    20:00 +3°C° 0 mm 5 mps 767 mmHg 64%
    21:00 +3°C° 0 mm 6 mps 766 mmHg 67%
    22:00 +3°C° 0 mm 6 mps 766 mmHg 70%
    23:00 +4°C° 0 mm 7 mps 765 mmHg 74%

    Tomorrow, 19 April, Friday

    Time Temperature Precipitation Wind Pressure Humidity
    00:00 +4°C° 0.6 mm 8 mps 764 mmHg 78%
    01:00 +3°C° 0.6 mm 9 mps 764 mmHg 83%
    02:00 +3°C° 0.6 mm 10 mps 763 mmHg 88%
    03:00 +3°C° 1 mm 10 mps 762 mmHg 90%
    04:00 +5°C° 1 mm 9 mps 761 mmHg 91%
    05:00 +6°C° 1 mm 9 mps 760 mmHg 92%
    06:00 +7°C° 0.3 mm 9 mps 760 mmHg 93%
    07:00 +8°C° 0.3 mm 9 mps 759 mmHg 93%
    08:00 +10°C° 0.3 mm 9 mps 759 mmHg 94%
    09:00 +10°C° 0.1 mm 9 mps 759 mmHg 93%
    10:00 +11°C° 0.1 mm 9 mps 759 mmHg 93%
    11:00 +12°C° 0.1 mm 9 mps 759 mmHg 92%
    12:00 +12°C° 0.1 mm 9 mps 759 mmHg 92%
    13:00 +12°C° 0.1 mm 9 mps 759 mmHg 92%
    14:00 +12°C° 0.1 mm 9 mps 759 mmHg 91%
    15:00 +13°C° 0.1 mm 9 mps 759 mmHg 91%
    16:00 +13°C° 0.1 mm 9 mps 759 mmHg 91%
    17:00 +13°C° 0.1 mm 9 mps 759 mmHg 91%
    18:00 +12°C° 0.1 mm 9 mps 759 mmHg 92%
    19:00 +12°C° 0.1 mm 9 mps 759 mmHg 93%
    20:00 +12°C° 0.1 mm 9 mps 759 mmHg 94%
    21:00 +12°C° 0.1 mm 9 mps 759 mmHg 94%
    22:00 +12°C° 0.1 mm 9 mps 760 mmHg 94%
    23:00 +12°C° 0.1 mm 9 mps 760 mmHg 93%

    Day after tomorrow, 20 April, Saturday

    Time Temperature Precipitation Wind Pressure Humidity
    00:00 +12°C° 0 mm 8 mps 760 mmHg 93%
    01:00 +12°C° 0 mm 8 mps 760 mmHg 93%
    02:00 +12°C° 0 mm 8 mps 760 mmHg 93%
    03:00 +12°C° 0 mm 8 mps 760 mmHg 93%
    04:00 +12°C° 0 mm 8 mps 760 mmHg 93%
    05:00 +12°C° 0 mm 8 mps 760 mmHg 93%
    06:00 +13°C° 0 mm 8 mps 760 mmHg 92%
    07:00 +13°C° 0 mm 8 mps 761 mmHg 91%
    08:00 +13°C° 0 mm 8 mps 761 mmHg 90%
    09:00 +13°C° 0 mm 8 mps 762 mmHg 90%
    10:00 +13°C° 0 mm 8 mps 762 mmHg 90%
    11:00 +14°C° 0 mm 7 mps 763 mmHg 90%
    12:00 +14°C° 0 mm 7 mps 763 mmHg 90%
    13:00 +14°C° 0 mm 7 mps 764 mmHg 89%
    14:00 +15°C° 0 mm 7 mps 764 mmHg 89%
    15:00 +14°C° 0 mm 7 mps 764 mmHg 90%
    16:00 +14°C° 0 mm 7 mps 764 mmHg 91%
    17:00 +14°C° 0 mm 6 mps 765 mmHg 92%
    18:00 +14°C° 0 mm 6 mps 765 mmHg 93%
    19:00 +13°C° 0 mm 6 mps 765 mmHg 94%
    20:00 +13°C° 0 mm 6 mps 766 mmHg 95%
    21:00 +13°C° 0 mm 6 mps 766 mmHg 96%
    22:00 +13°C° 0 mm 6 mps 766 mmHg 96%
    23:00 +11°C° 0 mm 6 mps 766 mmHg 97%

    21 April, Sunday

    Time Temperature Precipitation Wind Pressure Humidity
    00:00 +11°C° 0 mm 6 mps 766 mmHg 96%
    01:00 +12°C° 0 mm 5 mps 766 mmHg 95%
    02:00 +12°C° 0 mm 5 mps 766 mmHg 95%
    03:00 +12°C° 0 mm 5 mps 766 mmHg 95%
    04:00 +12°C° 0 mm 5 mps 766 mmHg 95%
    05:00 +12°C° 0 mm 5 mps 766 mmHg 96%
    06:00 +11°C° 0 mm 6 mps 766 mmHg 95%
    07:00 +11°C° 0 mm 6 mps 766 mmHg 95%
    08:00 +11°C° 0 mm 6 mps 766 mmHg 94%
    09:00 +13°C° 0.1 mm 6 mps 766 mmHg 94%
    10:00 +13°C° 0.1 mm 6 mps 767 mmHg 93%
    11:00 +12°C° 0.1 mm 7 mps 767 mmHg 93%
    12:00 +12°C° 0 mm 7 mps 767 mmHg 90%
    13:00 +14°C° 0 mm 7 mps 767 mmHg 87%
    14:00 +15°C° 0 mm 7 mps 767 mmHg 85%
    15:00 +15°C° 0 mm 7 mps 766 mmHg 84%
    16:00 +15°C° 0 mm 7 mps 766 mmHg 84%
    17:00 +15°C° 0 mm 7 mps 766 mmHg 83%
    18:00 +14°C° 0 mm 7 mps 766 mmHg 87%
    19:00 +12°C° 0 mm 7 mps 766 mmHg 90%
    20:00 +11°C° 0 mm 6 mps 766 mmHg 94%
    21:00 +12°C° 0.1 mm 7 mps 766 mmHg 94%
    22:00 +12°C° 0.1 mm 7 mps 766 mmHg 95%
    23:00 +12°C° 0.1 mm 7 mps 765 mmHg 95%

    22 April, Monday

    Time Temperature Precipitation Wind Pressure Humidity
    00:00 +12°C° 0.9 mm 7 mps 765 mmHg 96%
    01:00 +12°C° 0.9 mm 7 mps 765 mmHg 96%
    02:00 +11°C° 0.9 mm 7 mps 764 mmHg 97%
    03:00 +11°C° 1.3 mm 7 mps 765 mmHg 97%
    04:00 +11°C° 1.3 mm 6 mps 765 mmHg 97%
    05:00 +12°C° 1.3 mm 5 mps 765 mmHg 97%
    06:00 +12°C° 0.2 mm 5 mps 765 mmHg 97%
    07:00 +12°C° 0.2 mm 4 mps 765 mmHg 97%
    08:00 +12°C° 0.2 mm 4 mps 765 mmHg 97%
    09:00 +12°C° 0.1 mm 4 mps 765 mmHg 97%
    10:00 +12°C° 0.1 mm 4 mps 765 mmHg 96%
    11:00 +12°C° 0.1 mm 4 mps 765 mmHg 96%
    12:00 +13°C° 0 mm 4 mps 765 mmHg 93%
    13:00 +14°C° 0 mm 4 mps 765 mmHg 91%
    14:00 +14°C° 0 mm 4 mps 765 mmHg 88%
    15:00 +14°C° 0 mm 5 mps 764 mmHg 87%
    16:00 +14°C° 0 mm 5 mps 764 mmHg 87%
    17:00 +14°C° 0 mm 5 mps 764 mmHg 86%
    18:00 +13°C° 0.1 mm 5 mps 763 mmHg 89%
    19:00 +12°C° 0.1 mm 5 mps 763 mmHg 92%
    20:00 +12°C° 0.1 mm 5 mps 763 mmHg 95%
    21:00 +10°C° 0 mm 5 mps 763 mmHg 95%
    22:00 +10°C° 0 mm 5 mps 763 mmHg 95%
    23:00 +10°C° 0 mm 6 mps 762 mmHg 96%

    23 April, Tuesday

    Time Temperature Precipitation Wind Pressure Humidity
    00:00 +10°C° 0 mm 5 mps 762 mmHg 96%
    01:00 +10°C° 0 mm 5 mps 761 mmHg 96%
    02:00 +10°C° 0 mm 5 mps 761 mmHg 96%
    03:00 +11°C° 0.8 mm 4 mps 760 mmHg 96%
    04:00 +11°C° 0.8 mm 4 mps 760 mmHg 97%
    05:00 +11°C° 0.8 mm 4 mps 760 mmHg 98%
    06:00 +11°C° 0.3 mm 4 mps 760 mmHg 97%
    07:00 +11°C° 0.3 mm 4 mps 760 mmHg 96%
    08:00 +11°C° 0.3 mm 4 mps 759 mmHg 95%
    09:00 +12°C° 0.2 mm 4 mps 759 mmHg 96%
    10:00 +12°C° 0.2 mm 5 mps 759 mmHg 96%
    11:00 +12°C° 0.2 mm 5 mps 758 mmHg 97%
    12:00 +13°C° 0.1 mm 4 mps 758 mmHg 96%
    13:00 +13°C° 0.1 mm 4 mps 757 mmHg 95%
    14:00 +14°C° 0.1 mm 3 mps 756 mmHg 94%
    15:00 +14°C° 0 mm 3 mps 756 mmHg 94%
    16:00 +15°C° 0 mm 2 mps 756 mmHg 94%
    17:00 +15°C° 0 mm 1 mps 755 mmHg 94%
    18:00 +14°C° 0.3 mm 1 mps 755 mmHg 95%
    19:00 +13°C° 0.3 mm 1 mps 756 mmHg 97%
    20:00 +12°C° 0.3 mm 0 mps 756 mmHg 99%
    21:00 +10°C° 0.7 mm 3 mps 756 mmHg 95%
    22:00 +7°C° 0.7 mm 6 mps 756 mmHg 92%
    23:00 +5°C° 0.7 mm 8 mps 756 mmHg 89%
    Show more